Total_Precipitation_Accumulation
0.27 0.29 0.29 0.32 0.30 0.26 0.23 0.23 0.25 0.29 0.32 0.34 0.31 0.30 0.35 0.37 0.50 0.38 0.17 0.07 0.03 0.01 0.00 0.00 0.01 0.00 0.00 0.00 0.00 0.00 0.00 0.01 0.02 0.03 0.06 0.08 0.06 0.04 0.03 0.04 0.02 0.02 0.04 0.09 0.14 0.18 0.23 0.21 0.22 0.23 0.25 0.23 0.27 0.47 0.68 0.76 1.10 1.13 1.51 1.61 1.67 1.49 1.68 1.93 1.68 1.83 1.77 1.48 1.10 0.91 0.59 0.59 0.73 0.63
0.27 0.30 0.32 0.32 0.33 0.29 0.31 0.32 0.28 0.29 0.33 0.38 0.39 0.37 0.34 0.34 0.49 0.39 0.29 0.16 0.05 0.02 0.00 0.00 0.00 0.01 0.00 0.00 0.00 0.01 0.01 0.01 0.02 0.04 0.04 0.05 0.04 0.03 0.02 0.02 0.02 0.01 0.01 0.04 0.08 0.13 0.18 0.24 0.23 0.21 0.19 0.24 0.23 0.26 0.46 0.61 0.95 1.35 1.30 1.50 1.62 1.40 1.31 1.42 1.64 1.54 1.48 1.53 1.49 1.00 0.77 0.62 0.63 0.64
0.28 0.33 0.34 0.32 0.33 0.31 0.33 0.35 0.35 0.37 0.40 0.44 0.41 0.36 0.32 0.33 0.38 0.42 0.36 0.35 0.13 0.03 0.04 0.02 0.00 0.00 0.01 0.01 0.00 0.00 0.01 0.01 0.02 0.02 0.03 0.03 0.03 0.03 0.02 0.02 0.02 0.02 0.01 0.02 0.02 0.08 0.14 0.21 0.26 0.25 0.21 0.19 0.24 0.23 0.27 0.40 0.67 0.99 1.24 1.40 1.44 1.56 1.24 1.37 1.26 1.46 1.35 1.34 1.37 1.20 0.94 0.74 0.61 0.61
0.21 0.26 0.30 0.31 0.32 0.34 0.39 0.42 0.42 0.43 0.44 0.47 0.55 0.53 0.44 0.39 0.34 0.39 0.49 0.46 0.25 0.04 0.02 0.03 0.04 0.03 0.02 0.03 0.02 0.01 0.01 0.01 0.02 0.03 0.03 0.03 0.03 0.03 0.03 0.02 0.02 0.01 0.01 0.01 0.02 0.03 0.07 0.15 0.25 0.26 0.26 0.22 0.23 0.21 0.27 0.28 0.42 0.78 0.88 1.34 1.50 1.59 1.35 1.19 1.23 1.26 1.27 1.43 1.33 1.13 0.98 0.78 0.70 0.66
0.17 0.23 0.27 0.27 0.28 0.33 0.45 0.47 0.45 0.46 0.49 0.53 0.61 0.64 0.62 0.53 0.38 0.38 0.47 0.47 0.29 0.10 0.06 0.04 0.06 0.09 0.10 0.10 0.07 0.03 0.01 0.01 0.02 0.02 0.03 0.03 0.04 0.04 0.03 0.02 0.02 0.01 0.01 0.01 0.01 0.01 0.04 0.08 0.18 0.25 0.33 0.27 0.26 0.23 0.23 0.24 0.26 0.35 0.55 0.82 1.31 1.49 1.62 1.19 1.03 1.13 1.25 1.20 1.42 1.30 1.15 0.88 0.73 0.70
0.12 0.18 0.22 0.21 0.22 0.24 0.36 0.44 0.45 0.43 0.46 0.54 0.64 0.65 0.69 0.65 0.48 0.37 0.51 0.51 0.37 0.19 0.16 0.05 0.07 0.10 0.13 0.18 0.15 0.07 0.03 0.02 0.02 0.02 0.02 0.03 0.03 0.03 0.03 0.02 0.01 0.01 0.01 0.01 0.00 0.02 0.02 0.05 0.08 0.30 0.27 0.30 0.31 0.26 0.25 0.23 0.19 0.27 0.33 0.46 0.91 1.36 1.64 1.48 1.15 0.95 0.95 1.17 1.28 1.38 1.25 0.91 0.80 0.64
0.14 0.15 0.16 0.18 0.19 0.22 0.29 0.29 0.34 0.41 0.50 0.51 0.57 0.61 0.60 0.62 0.50 0.39 0.46 0.60 0.54 0.27 0.11 0.07 0.12 0.14 0.18 0.20 0.20 0.14 0.07 0.03 0.03 0.03 0.03 0.02 0.02 0.02 0.02 0.02 0.01 0.01 0.01 0.01 0.00 0.01 0.01 0.01 0.04 0.10 0.25 0.28 0.30 0.26 0.27 0.27 0.22 0.22 0.23 0.30 0.55 0.85 1.37 1.74 1.47 1.07 0.91 0.85 1.06 1.13 1.20 1.25 0.88 0.81
0.17 0.17 0.19 0.17 0.20 0.24 0.28 0.28 0.29 0.32 0.40 0.52 0.61 0.58 0.56 0.64 0.59 0.46 0.46 0.60 0.62 0.41 0.23 0.12 0.10 0.15 0.20 0.23 0.21 0.18 0.15 0.12 0.08 0.07 0.05 0.03 0.03 0.02 0.02 0.01 0.01 0.01 0.00 0.00 0.00 0.00 0.00 0.00 0.01 0.05 0.14 0.22 0.28 0.29 0.26 0.26 0.25 0.20 0.19 0.31 0.34 0.58 0.87 1.70 1.76 1.44 1.09 0.87 0.87 1.00 1.06 1.20 1.21 0.84
0.19 0.19 0.18 0.20 0.22 0.23 0.24 0.26 0.31 0.30 0.29 0.33 0.42 0.48 0.49 0.56 0.54 0.53 0.60 0.64 0.64 0.56 0.39 0.22 0.14 0.15 0.21 0.27 0.26 0.22 0.23 0.22 0.19 0.15 0.11 0.08 0.06 0.03 0.02 0.02 0.01 0.01 0.01 0.00 0.00 0.00 0.00 0.01 0.00 0.03 0.07 0.16 0.23 0.28 0.26 0.25 0.23 0.22 0.21 0.22 0.30 0.46 0.52 0.81 1.52 1.76 1.49 1.02 0.94 0.83 0.95 1.02 1.49 1.24
0.20 0.23 0.22 0.21 0.24 0.26 0.28 0.31 0.29 0.29 0.33 0.37 0.42 0.47 0.48 0.49 0.53 0.55 0.50 0.52 0.62 0.58 0.40 0.24 0.21 0.24 0.27 0.32 0.33 0.28 0.25 0.26 0.25 0.21 0.18 0.13 0.10 0.08 0.06 0.03 0.02 0.01 0.01 0.01 0.01 0.00 0.00 0.00 0.00 0.00 0.05 0.08 0.17 0.26 0.26 0.25 0.21 0.25 0.21 0.22 0.24 0.39 0.54 0.61 0.74 1.45 1.61 1.41 0.88 0.96 0.85 0.92 1.03 1.26
0.22 0.23 0.26 0.27 0.28 0.31 0.37 0.39 0.43 0.43 0.40 0.41 0.43 0.45 0.57 0.56 0.46 0.42 0.40 0.43 0.49 0.54 0.45 0.32 0.23 0.27 0.26 0.28 0.33 0.32 0.32 0.29 0.26 0.24 0.21 0.19 0.15 0.11 0.09 0.07 0.04 0.02 0.02 0.01 0.01 0.01 0.00 0.00 0.01 0.00 0.02 0.06 0.10 0.20 0.23 0.25 0.23 0.21 0.24 0.29 0.26 0.33 0.45 0.55 0.50 0.74 1.33 1.48 1.48 0.94 0.90 0.88 0.95 0.84
0.21 0.24 0.26 0.28 0.28 0.34 0.43 0.48 0.47 0.46 0.51 0.55 0.67 0.60 0.47 0.45 0.48 0.45 0.41 0.39 0.41 0.43 0.41 0.37 0.31 0.24 0.29 0.33 0.32 0.35 0.50 0.56 0.41 0.28 0.24 0.22 0.16 0.13 0.10 0.08 0.08 0.06 0.05 0.03 0.02 0.02 0.03 0.02 0.01 0.00 0.01 0.01 0.05 0.12 0.21 0.23 0.25 0.23 0.24 0.28 0.31 0.29 0.37 0.32 0.43 0.49 0.72 1.14 1.34 1.36 1.09 0.94 0.75 0.90
0.15 0.16 0.22 0.30 0.34 0.35 0.37 0.38 0.38 0.44 0.55 0.66 0.82 0.54 0.47 0.55 0.58 0.51 0.44 0.42 0.37 0.36 0.34 0.35 0.36 0.40 0.39 0.41 0.43 0.48 0.51 0.55 0.41 0.24 0.20 0.21 0.17 0.15 0.13 0.11 0.11 0.13 0.14 0.10 0.06 0.03 0.03 0.04 0.03 0.03 0.02 0.01 0.02 0.05 0.15 0.21 0.24 0.25 0.24 0.27 0.29 0.33 0.34 0.35 0.36 0.37 0.47 0.67 0.97 1.17 1.31 1.34 0.98 0.85
0.11 0.11 0.13 0.20 0.25 0.29 0.30 0.32 0.36 0.40 0.44 0.61 0.60 0.62 0.68 0.70 0.67 0.58 0.52 0.50 0.44 0.36 0.36 0.33 0.39 0.40 0.38 0.39 0.41 0.40 0.34 0.32 0.33 0.37 0.38 0.33 0.27 0.25 0.22 0.19 0.17 0.16 0.18 0.17 0.15 0.09 0.04 0.03 0.03 0.06 0.03 0.04 0.02 0.03 0.07 0.14 0.20 0.24 0.24 0.26 0.33 0.33 0.27 0.31 0.29 0.34 0.36 0.52 0.63 0.87 1.01 1.28 1.46 1.14
0.11 0.11 0.10 0.12 0.14 0.16 0.15 0.17 0.22 0.28 0.44 0.50 0.42 0.45 0.58 0.67 0.79 0.79 0.66 0.47 0.51 0.49 0.42 0.44 0.53 0.53 0.50 0.46 0.42 0.46 0.47 0.44 0.49 0.40 0.36 0.38 0.44 0.43 0.35 0.30 0.24 0.20 0.20 0.19 0.17 0.13 0.08 0.07 0.04 0.02 0.02 0.16 0.16 0.02 0.03 0.08 0.32 0.25 0.21 0.21 0.25 0.28 0.22 0.25 0.30 0.30 0.36 0.37 0.52 0.64 0.79 0.95 1.13 1.44
0.09 0.08 0.08 0.08 0.10 0.11 0.11 0.13 0.17 0.29 0.39 0.30 0.29 0.35 0.48 0.56 0.60 0.66 0.85 0.71 0.50 0.50 0.50 0.47 0.57 0.69 0.65 0.58 0.50 0.54 0.62 0.59 0.57 0.55 0.49 0.48 0.50 0.48 0.39 0.27 0.23 0.20 0.17 0.19 0.19 0.15 0.13 0.08 0.06 0.04 0.02 0.01 0.01 0.01 0.03 0.03 0.08 0.16 0.23 0.22 0.21 0.25 0.24 0.21 0.28 0.33 0.32 0.36 0.48 0.52 0.63 0.77 0.90 1.05
0.07 0.06 0.06 0.06 0.07 0.09 0.08 0.08 0.20 0.39 0.32 0.21 0.21 0.27 0.39 0.45 0.47 0.52 0.58 0.63 0.60 0.59 0.57 0.51 0.45 0.52 0.62 0.55 0.50 0.58 0.67 0.66 0.64 0.57 0.54 0.47 0.44 0.44 0.39 0.34 0.25 0.24 0.24 0.26 0.29 0.23 0.16 0.13 0.08 0.05 0.02 0.03 0.01 0.00 0.00 0.02 0.04 0.10 0.19 0.26 0.23 0.24 0.21 0.22 0.21 0.32 0.31 0.36 0.45 0.51 0.49 0.62 0.80 0.83
0.06 0.08 0.11 0.12 0.11 0.11 0.10 0.12 0.32 0.40 0.27 0.16 0.16 0.24 0.35 0.38 0.38 0.42 0.48 0.56 0.54 0.53 0.62 0.59 0.55 0.51 0.57 0.56 0.50 0.61 0.69 0.68 0.70 0.53 0.47 0.38 0.38 0.42 0.40 0.39 0.39 0.42 0.46 0.42 0.37 0.29 0.20 0.15 0.12 0.08 0.05 0.03 0.02 0.01 0.00 0.00 0.02 0.05 0.13 0.20 0.25 0.23 0.22 0.22 0.24 0.28 0.32 0.34 0.34 0.47 0.51 0.57 0.69 0.87
0.08 0.07 0.09 0.12 0.14 0.17 0.13 0.18 0.34 0.43 0.27 0.15 0.15 0.22 0.30 0.37 0.37 0.39 0.46 0.52 0.56 0.60 0.60 0.62 0.60 0.56 0.52 0.54 0.48 0.50 0.54 0.58 0.65 0.67 0.51 0.42 0.40 0.49 0.68 0.51 0.47 0.47 0.46 0.42 0.43 0.39 0.22 0.17 0.13 0.10 0.08 0.06 0.04 0.02 0.01 0.01 0.02 0.03 0.07 0.14 0.20 0.23 0.22 0.21 0.24 0.27 0.33 0.35 0.36 0.35 0.41 0.57 0.56 0.79
0.04 0.05 0.07 0.10 0.12 0.20 0.15 0.23 0.31 0.35 0.28 0.13 0.14 0.17 0.23 0.31 0.33 0.38 0.44 0.49 0.55 0.65 0.75 0.74 0.71 0.74 0.65 0.64 0.63 0.61 0.58 0.56 0.62 0.63 0.54 0.53 0.58 0.58 0.59 0.51 0.41 0.37 0.42 0.39 0.36 0.27 0.25 0.22 0.15 0.12 0.12 0.10 0.09 0.06 0.03 0.01 0.01 0.02 0.05 0.09 0.15 0.21 0.22 0.20 0.20 0.22 0.25 0.33 0.38 0.33 0.37 0.47 0.55 0.60
0.04 0.04 0.07 0.11 0.20 0.25 0.20 0.27 0.32 0.30 0.21 0.14 0.16 0.18 0.21 0.28 0.29 0.32 0.36 0.41 0.44 0.47 0.51 0.58 0.60 0.60 0.63 0.63 0.61 0.61 0.58 0.60 0.67 0.75 0.75 0.61 0.46 0.46 0.49 0.41 0.39 0.33 0.37 0.40 0.34 0.22 0.20 0.18 0.17 0.18 0.17 0.15 0.12 0.11 0.09 0.05 0.02 0.02 0.03 0.05 0.09 0.16 0.19 0.21 0.20 0.20 0.22 0.27 0.33 0.38 0.39 0.45 0.47 0.60
0.03 0.03 0.05 0.09 0.26 0.29 0.25 0.24 0.28 0.25 0.34 0.14 0.16 0.18 0.19 0.22 0.24 0.25 0.28 0.32 0.37 0.43 0.46 0.54 0.58 0.59 0.70 0.73 0.61 0.62 0.66 0.64 0.71 0.68 0.66 0.65 0.58 0.53 0.42 0.41 0.34 0.35 0.39 0.46 0.37 0.29 0.21 0.22 0.19 0.19 0.21 0.20 0.18 0.15 0.12 0.09 0.06 0.04 0.04 0.04 0.05 0.08 0.14 0.19 0.20 0.19 0.19 0.24 0.27 0.34 0.43 0.42 0.49 0.57
0.03 0.03 0.04 0.06 0.20 0.25 0.24 0.21 0.24 0.21 0.20 0.14 0.16 0.23 0.24 0.24 0.23 0.24 0.25 0.28 0.33 0.34 0.35 0.42 0.52 0.57 0.65 0.78 0.66 0.60 0.60 0.61 0.61 0.69 0.65 0.52 0.52 0.55 0.51 0.58 0.60 0.56 0.53 0.43 0.40 0.32 0.28 0.28 0.29 0.22 0.27 0.29 0.22 0.17 0.16 0.14 0.12 0.09 0.07 0.06 0.06 0.06 0.10 0.13 0.15 0.21 0.21 0.22 0.26 0.29 0.36 0.44 0.47 0.61
0.03 0.02 0.04 0.04 0.14 0.19 0.17 0.17 0.19 0.18 0.16 0.17 0.17 0.19 0.25 0.30 0.31 0.25 0.23 0.23 0.30 0.33 0.34 0.38 0.42 0.43 0.45 0.69 0.72 0.59 0.53 0.59 0.65 0.64 0.56 0.52 0.46 0.41 0.43 0.58 0.65 0.61 0.47 0.38 0.37 0.32 0.29 0.26 0.28 0.28 0.23 0.20 0.21 0.19 0.16 0.16 0.15 0.13 0.11 0.10 0.09 0.08 0.11 0.10 0.13 0.14 0.20 0.22 0.26 0.30 0.34 0.38 0.49 0.53
0.04 0.04 0.05 0.06 0.12 0.15 0.13 0.13 0.14 0.16 0.13 0.13 0.13 0.21 0.25 0.29 0.24 0.18 0.15 0.15 0.17 0.20 0.23 0.26 0.29 0.29 0.32 0.45 0.55 0.53 0.57 0.56 0.60 0.63 0.56 0.55 0.53 0.49 0.39 0.38 0.41 0.43 0.44 0.43 0.36 0.30 0.40 0.45 0.44 0.38 0.26 0.22 0.17 0.15 0.16 0.15 0.16 0.16 0.15 0.12 0.12 0.09 0.11 0.11 0.12 0.16 0.17 0.22 0.26 0.31 0.33 0.37 0.43 0.51
0.04 0.06 0.08 0.09 0.12 0.13 0.11 0.10 0.10 0.12 0.11 0.10 0.13 0.14 0.13 0.11 0.11 0.09 0.09 0.09 0.10 0.12 0.14 0.17 0.18 0.19 0.21 0.29 0.37 0.39 0.47 0.52 0.52 0.58 0.56 0.54 0.53 0.51 0.54 0.49 0.43 0.37 0.42 0.36 0.33 0.32 0.31 0.41 0.34 0.36 0.34 0.23 0.18 0.16 0.19 0.19 0.19 0.18 0.18 0.16 0.13 0.11 0.11 0.13 0.12 0.13 0.14 0.18 0.23 0.28 0.33 0.36 0.40 0.46
0.06 0.07 0.09 0.09 0.10 0.10 0.09 0.08 0.07 0.08 0.10 0.08 0.11 0.09 0.06 0.05 0.04 0.05 0.06 0.06 0.07 0.07 0.08 0.12 0.15 0.14 0.13 0.18 0.26 0.29 0.32 0.39 0.45 0.52 0.59 0.53 0.54 0.52 0.49 0.52 0.50 0.48 0.47 0.46 0.39 0.32 0.31 0.35 0.34 0.36 0.32 0.24 0.18 0.20 0.20 0.22 0.20 0.19 0.21 0.20 0.18 0.16 0.24 0.17 0.14 0.15 0.13 0.14 0.16 0.26 0.35 0.39 0.37 0.44
0.06 0.09 0.10 0.10 0.08 0.07 0.07 0.06 0.05 0.04 0.06 0.08 0.07 0.05 0.03 0.02 0.02 0.04 0.03 0.05 0.06 0.06 0.07 0.08 0.11 0.11 0.11 0.12 0.16 0.20 0.25 0.32 0.39 0.42 0.43 0.46 0.59 0.49 0.47 0.52 0.43 0.40 0.40 0.45 0.38 0.37 0.36 0.32 0.31 0.25 0.29 0.33 0.26 0.23 0.22 0.20 0.19 0.16 0.17 0.19 0.19 0.19 0.19 0.16 0.15 0.17 0.18 0.14 0.15 0.19 0.29 0.40 0.38 0.43
0.05 0.08 0.07 0.07 0.06 0.06 0.06 0.03 0.03 0.03 0.04 0.05 0.05 0.03 0.02 0.01 0.02 0.03 0.04 0.05 0.05 0.04 0.05 0.05 0.06 0.08 0.09 0.11 0.13 0.15 0.16 0.22 0.32 0.40 0.42 0.41 0.46 0.42 0.41 0.42 0.38 0.35 0.46 0.45 0.44 0.42 0.40 0.38 0.34 0.31 0.25 0.22 0.27 0.26 0.22 0.21 0.18 0.21 0.19 0.22 0.24 0.24 0.20 0.16 0.15 0.15 0.18 0.22 0.20 0.19 0.23 0.34 0.43 0.41
0.03 0.04 0.05 0.05 0.05 0.05 0.06 0.04 0.04 0.04 0.04 0.03 0.03 0.02 0.02 0.02 0.02 0.03 0.04 0.04 0.05 0.06 0.04 0.04 0.04 0.05 0.05 0.06 0.08 0.10 0.14 0.17 0.20 0.28 0.36 0.38 0.35 0.37 0.40 0.40 0.36 0.32 0.34 0.40 0.44 0.45 0.41 0.39 0.41 0.39 0.33 0.26 0.21 0.22 0.23 0.28 0.32 0.25 0.25 0.23 0.22 0.33 0.44 0.32 0.27 0.18 0.16 0.18 0.17 0.17 0.18 0.22 0.34 0.43
0.02 0.03 0.04 0.05 0.05 0.06 0.06 0.05 0.04 0.04 0.04 0.04 0.03 0.03 0.03 0.03 0.03 0.04 0.04 0.04 0.05 0.05 0.05 0.04 0.04 0.03 0.03 0.05 0.06 0.09 0.14 0.18 0.18 0.20 0.25 0.31 0.32 0.30 0.33 0.36 0.35 0.35 0.32 0.32 0.36 0.39 0.40 0.39 0.40 0.42 0.41 0.39 0.31 0.24 0.24 0.22 0.26 0.29 0.32 0.32 0.32 0.37 0.35 0.30 0.22 0.19 0.18 0.17 0.19 0.19 0.18 0.23 0.25 0.39
0.02 0.02 0.02 0.03 0.04 0.04 0.05 0.05 0.05 0.05 0.05 0.05 0.05 0.04 0.05 0.05 0.05 0.04 0.04 0.04 0.04 0.04 0.03 0.03 0.02 0.02 0.03 0.04 0.05 0.07 0.10 0.13 0.15 0.18 0.21 0.25 0.27 0.29 0.30 0.34 0.37 0.35 0.35 0.31 0.30 0.30 0.30 0.34 0.37 0.42 0.44 0.40 0.38 0.35 0.34 0.36 0.30 0.27 0.29 0.32 0.34 0.33 0.28 0.40 0.36 0.30 0.24 0.22 0.25 0.26 0.26 0.24 0.24 0.30
0.03 0.02 0.03 0.03 0.04 0.05 0.06 0.06 0.06 0.06 0.07 0.07 0.07 0.07 0.07 0.07 0.08 0.08 0.08 0.09 0.08 0.07 0.06 0.06 0.06 0.05 0.04 0.04 0.03 0.04 0.06 0.08 0.10 0.13 0.17 0.19 0.25 0.30 0.33 0.38 0.32 0.29 0.32 0.33 0.31 0.31 0.32 0.31 0.30 0.42 0.49 0.40 0.41 0.45 0.48 0.49 0.49 0.42 0.36 0.38 0.36 0.36 0.33 0.31 0.30 0.28 0.31 0.34 0.31 0.29 0.29 0.27 0.23 0.23
0.03 0.04 0.04 0.04 0.04 0.05 0.06 0.06 0.07 0.07 0.08 0.08 0.08 0.08 0.09 0.10 0.12 0.13 0.14 0.15 0.14 0.13 0.13 0.12 0.12 0.12 0.11 0.11 0.09 0.08 0.08 0.07 0.08 0.09 0.13 0.18 0.20 0.26 0.35 0.38 0.32 0.25 0.23 0.24 0.25 0.27 0.30 0.32 0.33 0.34 0.43 0.50 0.50 0.51 0.51 0.48 0.48 0.50 0.51 0.52 0.49 0.44 0.39 0.35 0.33 0.32 0.35 0.35 0.34 0.37 0.35 0.33 0.28 0.25
0.03 0.03 0.03 0.04 0.04 0.05 0.06 0.08 0.10 0.10 0.10 0.11 0.11 0.11 0.10 0.11 0.12 0.13 0.16 0.18 0.19 0.19 0.18 0.16 0.14 0.12 0.12 0.11 0.10 0.10 0.09 0.08 0.08 0.08 0.10 0.12 0.20 0.27 0.28 0.30 0.27 0.25 0.24 0.24 0.23 0.22 0.26 0.33 0.42 0.54 0.56 0.59 0.66 0.65 0.53 0.51 0.50 0.54 0.54 0.54 0.55 0.53 0.50 0.47 0.41 0.35 0.34 0.33 0.34 0.37 0.35 0.30 0.31 0.29
0.03 0.04 0.05 0.06 0.06 0.07 0.08 0.09 0.10 0.12 0.14 0.15 0.15 0.14 0.12 0.11 0.11 0.13 0.14 0.14 0.14 0.14 0.15 0.16 0.16 0.16 0.16 0.15 0.15 0.14 0.13 0.12 0.11 0.11 0.13 0.15 0.18 0.20 0.22 0.22 0.20 0.20 0.22 0.22 0.22 0.24 0.27 0.30 0.37 0.50 0.63 0.72 0.72 0.70 0.63 0.53 0.49 0.50 0.52 0.53 0.51 0.51 0.52 0.51 0.49 0.46 0.40 0.37 0.34 0.30 0.34 0.37 0.33 0.32
0.04 0.05 0.06 0.08 0.08 0.09 0.11 0.12 0.14 0.15 0.16 0.16 0.15 0.15 0.16 0.16 0.14 0.15 0.14 0.13 0.13 0.13 0.13 0.12 0.12 0.12 0.13 0.13 0.14 0.14 0.15 0.19 0.21 0.17 0.16 0.13 0.14 0.16 0.18 0.18 0.17 0.18 0.21 0.19 0.18 0.21 0.30 0.33 0.36 0.39 0.45 0.51 0.55 0.54 0.52 0.45 0.41 0.41 0.42 0.43 0.45 0.46 0.46 0.51 0.56 0.55 0.51 0.40 0.36 0.31 0.23 0.20 0.22 0.26
0.06 0.07 0.08 0.09 0.10 0.11 0.12 0.14 0.15 0.15 0.15 0.16 0.17 0.17 0.17 0.17 0.16 0.14 0.13 0.14 0.14 0.13 0.12 0.12 0.12 0.12 0.12 0.12 0.15 0.16 0.15 0.16 0.17 0.20 0.19 0.19 0.20 0.21 0.21 0.23 0.22 0.18 0.17 0.19 0.21 0.19 0.22 0.27 0.35 0.40 0.42 0.45 0.45 0.39 0.37 0.38 0.38 0.37 0.32 0.40 0.48 0.50 0.43 0.46 0.50 0.49 0.47 0.47 0.43 0.38 0.30 0.27 0.25 0.25
0.09 0.10 0.11 0.12 0.12 0.13 0.14 0.15 0.17 0.17 0.17 0.17 0.17 0.17 0.16 0.13 0.12 0.11 0.11 0.12 0.11 0.11 0.11 0.11 0.11 0.11 0.11 0.11 0.12 0.14 0.15 0.15 0.17 0.18 0.17 0.18 0.18 0.18 0.20 0.21 0.22 0.23 0.23 0.23 0.20 0.23 0.27 0.29 0.33 0.36 0.38 0.39 0.38 0.37 0.34 0.34 0.34 0.35 0.35 0.34 0.43 0.44 0.42 0.43 0.43 0.43 0.45 0.50 0.49 0.47 0.46 0.38 0.34 0.38
0.10 0.10 0.11 0.12 0.13 0.13 0.14 0.15 0.15 0.16 0.17 0.17 0.17 0.18 0.18 0.16 0.14 0.15 0.15 0.15 0.14 0.13 0.14 0.15 0.14 0.14 0.14 0.13 0.12 0.12 0.12 0.13 0.14 0.13 0.14 0.15 0.17 0.17 0.16 0.16 0.17 0.19 0.28 0.29 0.28 0.25 0.27 0.30 0.27 0.31 0.29 0.27 0.28 0.34 0.33 0.33 0.33 0.31 0.36 0.42 0.40 0.39 0.46 0.42 0.39 0.43 0.44 0.41 0.45 0.49 0.55 0.52 0.57 0.60
0.10 0.10 0.11 0.11 0.12 0.12 0.13 0.14 0.15 0.15 0.15 0.15 0.15 0.16 0.16 0.17 0.17 0.19 0.20 0.20 0.19 0.19 0.18 0.17 0.17 0.18 0.17 0.17 0.17 0.18 0.17 0.14 0.13 0.13 0.12 0.12 0.14 0.17 0.17 0.17 0.21 0.19 0.22 0.27 0.25 0.26 0.25 0.21 0.20 0.21 0.25 0.26 0.24 0.32 0.49 0.46 0.47 0.46 0.44 0.44 0.46 0.44 0.42 0.48 0.47 0.47 0.45 0.47 0.46 0.48 0.50 0.53 0.52 0.55
0.09 0.10 0.10 0.10 0.11 0.12 0.13 0.14 0.13 0.14 0.14 0.14 0.15 0.16 0.16 0.16 0.16 0.18 0.17 0.17 0.17 0.18 0.19 0.20 0.20 0.20 0.19 0.18 0.17 0.17 0.19 0.18 0.17 0.16 0.15 0.15 0.14 0.14 0.15 0.19 0.24 0.23 0.21 0.20 0.18 0.16 0.13 0.14 0.19 0.20 0.32 0.53 0.42 0.50 0.56 0.47 0.41 0.38 0.39 0.40 0.44 0.46 0.48 0.49 0.49 0.53 0.57 0.57 0.56 0.54 0.57 0.61 0.55 0.53
0.07 0.08 0.08 0.09 0.09 0.11 0.12 0.13 0.13 0.14 0.15 0.16 0.17 0.17 0.18 0.17 0.17 0.17 0.17 0.18 0.19 0.21 0.22 0.21 0.21 0.21 0.20 0.19 0.19 0.20 0.20 0.20 0.19 0.18 0.17 0.16 0.17 0.18 0.18 0.17 0.16 0.15 0.15 0.13 0.10 0.10 0.14 0.16 0.19 0.26 0.33 0.40 0.45 0.45 0.44 0.35 0.28 0.27 0.30 0.34 0.39 0.45 0.51 0.51 0.53 0.55 0.54 0.50 0.49 0.51 0.50 0.52 0.52 0.52
0.07 0.07 0.07 0.07 0.09 0.10 0.11 0.12 0.13 0.14 0.16 0.18 0.20 0.20 0.20 0.20 0.20 0.21 0.22 0.23 0.25 0.27 0.26 0.26 0.25 0.24 0.23 0.23 0.22 0.22 0.22 0.23 0.22 0.22 0.20 0.18 0.17 0.17 0.16 0.16 0.17 0.17 0.19 0.20 0.21 0.23 0.21 0.23 0.24 0.26 0.35 0.36 0.30 0.34 0.37 0.33 0.31 0.29 0.32 0.32 0.44 0.42 0.47 0.57 0.61 0.59 0.57 0.54 0.53 0.46 0.44 0.39 0.38 0.30
0.07 0.07 0.07 0.07 0.08 0.09 0.10 0.11 0.12 0.14 0.16 0.18 0.19 0.19 0.18 0.18 0.19 0.21 0.21 0.22 0.25 0.26 0.26 0.27 0.27 0.27 0.26 0.26 0.28 0.27 0.25 0.24 0.23 0.22 0.22 0.21 0.21 0.20 0.19 0.19 0.20 0.22 0.23 0.20 0.21 0.22 0.22 0.24 0.26 0.26 0.28 0.27 0.25 0.24 0.23 0.26 0.28 0.32 0.33 0.34 0.37 0.37 0.39 0.49 0.65 0.66 0.69 0.71 0.59 0.49 0.42 0.36 0.31 0.27